www.pogodaiklimat.ru

Погода и климат >> Архив погоды >> Черногория >> Подгорица-Град


ПОГОДА в Подгорица-Граде

  • Прогноз погоды в Подгорица-Граде
  • Монитор погоды в Подгорица-Граде

АРХИВ ПОГОДЫ в Подгорица-Граде

Время (UTC), дата Ветер
(напр.,м/с)
 
Видим.   Явления Облачность Т
(С)
Тd
(С)
f
(%)
Тe
(С)
Тes
(С)
Комфортность P
(гПа)
Po
(гПа)
Тmin
(С)
Tmax
(С)
R
(мм)
R24
(мм)
S
(см)
19 15.08 В 3
{11}
20 км 3/3 1000 м
[Cu med, cong]
+26.0 +11.4 40 +27 +27 жарко 1012.9 1007.1
20 15.08 С 4 20 км 4/3 1000 м
[Cb calv Ac trans]
+25.7 +11.1 40 +27 +27 жарко 1013.4 1007.6
21 15.08 С 5 20 км 5/4 1000 м
[Cu Sc Ac trans]
+25.3 +10.9 40 +26 +26 жарко 1013.8 1008.0
00 16.08 С 1 20 км 1/0
[Ac trans]
+22.7 +11.5 49 +25 +25 комфорт 1013.8 1008.0
03 16.08 СЗ 1 20 км 4/0
[Ac trans]
+20.6 +11.8 57 +24 +24 комфорт 1014.1 1008.2
04 16.08 С 1 20 км 5/0
[Ac trans]
+19.7 +12.3 62 +22 +22 комфорт 1014.4 1008.5
05 16.08 З 1 20 км 6/0
[Ac trans]
+20.6 +12.7 61 +24 +25 комфорт 1014.6 1009.0
06 16.08 З 2 20 км 8/0
[Ac trans]
+22.7 +12.7 53 +25 +27 комфорт 1014.6 1009.0 +19.6
07 16.08 З 1 20 км 3/0
[Ac trans]
+24.4 +12.5 47 +26 +33 жарко 1014.8 1009.2
08 16.08 З 2 20 км 3/1 1000 м
[Cu hum Ac trans]
+26.0 +12.5 43 +28 +36 жарко 1014.7 1009.1
09 16.08 С 2 20 км 3/1 1000 м
[Cu hum Ac trans]
+27.5 +11.2 36 +28 +39 жарко 1014.6 1009.0
10 16.08 З 2 20 км 4/4 1000 м
[Cu Sc]
+28.7 +12.4 37 +30 +40 жарко 1014.3 1008.6
11 16.08 В 2 20 км 4/4 1000 м
[Cu Sc]
+29.1 +11.2 33 +30 +40 жарко 1014.0 1008.3
12 16.08 ЮЗ 3 20 км 3/3 1000 м
[Cu med, cong]
+29.7 +13.6 37 +31 +40 жарко 1013.7 1008.0
13 16.08 ЮЗ 2 20 км 1/1 1000 м
[Cu med, cong]
+30.1 +12.5 34 +31 +42 жарко 1013.3 1007.6
14 16.08 Ю 3 20 км 4/1 1000 м
[Cu med, cong Ac trans]
+30.2 +12.8 34 +31 +36 жарко 1013.1 1007.4
15 16.08 Ю 3 20 км 4/1 1000 м
[Cu med, cong Ac trans]
+29.8 +13.5 37 +31 +34 жарко 1013.0 1007.3
16 16.08 Ю 2 20 км 4/1 1000 м
[Cu med, cong Ac trans Ci sp]
+29.2 +15.0 42 +32 +33 душно 1013.0 1007.3
17 16.08 Ю 2 20 км 8/1 1000 м
[Cu med, cong Ac As]
+28.3 +14.7 43 +31 +31 душно 1013.3 1007.6
18 16.08 З 2 20 км 5/1 1000 м
[Cu med, cong Ac As]
+26.0 +15.3 52 +29 +29 душно 1013.8 1008.0 +30.6
19 16.08 З 2 20 км 3/0
[Ac trans]
+24.1 +15.0 57 +27 +27 жарко 1014.5 1008.7
20 16.08 С 2 20 км 1/0
[Ac trans]
+23.5 +13.8 54 +26 +26 жарко 1015.1 1009.3
21 16.08 С 2 20 км ясно +24.5 +10.3 41 +26 +26 жарко 1015.4 1009.6
00 17.08 СЗ 1 20 км ясно +21.4 +11.4 53 +23 +23 комфорт 1015.9 1010.0
03 17.08 ЮЗ 1 20 км ясно +18.9 +10.5 58 +21 +21 комфорт 1016.5 1010.6
04 17.08 СЗ 1 20 км ясно +18.0 +10.9 63 +19 +19 1016.9 1011.0
05 17.08 З 1 20 км ясно +18.8 +10.8 60 +21 +22 комфорт 1017.0 1011.1
06 17.08 С 2 20 км ясно +22.7 +10.0 44 +24 +28 комфорт 1017.3 1011.4 +10.0 173
07 17.08 СЗ 2 20 км ясно +24.6 +10.0 40 +26 +32 жарко 1017.2 1011.4
08 17.08 СЗ 2 20 км ясно +25.9 +10.2 37 +27 +37 жарко 1017.0 1011.2
09 17.08 З 2 20 км ясно +27.6 +10.9 35 +28 +42 жарко 1017.1 1011.3
10 17.08 СЗ 2 20 км 4/3 1000 м
[Cu med, cong Ci fib]
+28.7 +10.8 33 +29 +40 жарко 1016.5 1010.8
11 17.08 З 2 20 км 4/3 1000 м
[Cu med, cong Ci fib]
+29.6 +11.2 32 +30 +41 жарко 1016.1 1010.4
12 17.08 Ю 3 20 км 4/3 1000 м
[Cu med, cong Ci fib]
+29.5 +11.4 33 +30 +39 жарко 1015.7 1010.0
13 17.08 Ю 3 20 км 5/3 1000 м
[Cu med, cong Cs]
+29.8 +10.3 30 +30 +37 жарко 1015.2 1009.5
14 17.08 Ю 3 20 км 5/3 1000 м
[Cu med, cong Ci sp]
+28.9 +10.2 31 +29 +34 жарко 1014.9 1009.2
15 17.08 ЮЗ 3 20 км 5/3 1000 м
[Cu med, cong Ac trans]
+28.3 +9.6 31 +28 +31 жарко 1014.8 1009.1
16 17.08 ЮЗ 3 20 км 5/3 1000 м
[Cu med, cong Ac trans]
+30.0 +13.6 37 +32 +32 жарко 1014.9 1009.2
17 17.08 Ю 2 20 км 5/3 1000 м
[Cu med, cong Ac trans]
+28.6 +16.0 46 +32 +32 душно 1015.0 1009.3
18 17.08 ЮВ 1 20 км 5/3 1000 м
[Cu med, cong Ac trans]
+27.0 +16.0 51 +30 +30 душно 1015.2 1009.4 +31.8
19 17.08 С 1 20 км ясно +25.7 +16.4 56 +29 +29 душно 1015.8 1010.0
20 17.08 штиль 0 20 км ясно +23.9 +16.8 64 +27 +27 жарко 1015.9 1010.1
21 17.08 С 1 20 км ясно +23.2 +14.1 57 +27 +27 душно 1016.0 1010.2
00 18.08 СЗ 1 20 км ясно +21.5 +12.3 56 +24 +24 комфорт 1016.7 1010.8
03 18.08 СЗ 2 20 км 3/0
[Ci fib]
+21.1 +11.8 55 +23 +23 комфорт 1016.7 1010.8
04 18.08 С 1 20 км 3/0
[Ci fib]
+20.5 +12.0 58 +24 +24 комфорт 1017.1 1011.2
05 18.08 С 1 20 км ясно +21.2 +11.7 55 +23 +24 комфорт 1017.4 1011.5
06 18.08 С 2 20 км 3/0
[Ci sp]
+23.3 +11.8 48 +26 +29 жарко 1017.3 1011.5 +19.9
07 18.08 З 2 20 км 3/0
[Ci sp]
+25.3 +13.0 46 +27 +33 жарко 1017.3 1011.5
08 18.08 СЗ 2 20 км 1/0
[Ci fib]
+27.5 +12.7 40 +29 +39 жарко 1017.3 1011.5
09 18.08 В 1 20 км ясно +29.1 +12.3 35 +30 +46 жарко 1017.0 1011.3
10 18.08 З 2 20 км 3/0
[Ci sp]
+30.1 +12.7 34 +31 +46 жарко 1016.8 1011.1
11 18.08 Ю 2 20 км 3/0
[Ci sp]
+30.7 +13.4 35 +32 +48 жарко 1016.4 1010.7
12 18.08 Ю 3 20 км 3/0
[Ci sp]
+31.1 +12.3 32 +32 +44 жарко 1016.3 1010.6
13 18.08 ЮВ 3 20 км 1/0
[]
+31.8 +11.2 28 +32 +41 жарко 1016.9 1010.2
14 18.08 Ю 3 20 км 1/0
[Ci sp]
+32.2 +11.7 29 +32 +39 жарко 1015.5 1009.8
15 18.08 Ю 2 20 км 1/0
[Ci sp]
+32.2 +13.0 31 +33 +37 жарко 1015.5 1009.8
16 18.08 З 2 20 км 1/0
[Ci fib]
+31.6 +13.2 33 +33 +34 жарко 1015.4 1009.7
17 18.08 ЮВ 2 20 км ясно +30.9 +11.7 31 +31 +32 жарко 1015.5 1009.8
18 18.08 СВ 1 20 км 3/0
[Ci sp]
+28.9 +13.1 38 +30 +30 жарко 1015.7 1010.0 +32.6
19 18.08 З 1 20 км 3/0
[Ci sp]
+26.4 +14.8 49 +29 +29 жарко 1016.2 1010.4
20 18.08 Ю 1 20 км 3/0
[Ci sp]
+25.0 +15.1 54 +28 +28 жарко 1015.1 1010.6
21 18.08 З 1 20 км ясно +24.6 +15.0 55 +27 +27 жарко 1016.6 1010.8
00 19.08 В 1 20 км ясно +22.8 +13.4 55 +26 +26 жарко 1016.9 1011.0
03 19.08 З 1 20 км 1/0
[Ci fib]
+21.9 +13.2 58 +25 +25 комфорт 1016.8 1010.9
04 19.08 С 1 20 км 3/0
[Ci fib]
+21.4 +13.5 61 +24 +24 комфорт 1017.0 1011.1
05 19.08 С 1 20 км 4/0
[Ci fib]
+21.8 +13.4 59 +25 +25 комфорт 1017.2 1011.3
06 19.08 С 2 20 км 4/0
[Ci fib]
+25.5 +13.0 46 +27 +30 жарко 1017.4 1011.6 +21.0
07 19.08 СВ 2 20 км 4/0
[Ci fib]
+27.5 +13.2 41 +29 +35 жарко 1017.5 1011.7
08 19.08 З 1 20 км 4/0
[Ci fib]
+28.7 +13.4 39 +30 +42 жарко 1017.4 1011.6
09 19.08 З 1 20 км 3/0
[Ci fib]
+30.0 +13.5 36 +31 +47 жарко 1017.1 1011.4
10 19.08 Ю 3 20 км 1/0
[Ci fib]
+31.2 +14.3 36 +33 +46 жарко 1016.9 1011.2
11 19.08 Ю 2 20 км 1/0
[Ci fib]
+32.0 +13.6 33 +33 +49 жарко 1016.6 1011.0
12 19.08 ЮВ 2 20 км 1/0
[Ci fib]
+33.1 +14.5 33 +35 +49 душно 1016.3 1010.6
13 19.08 Ю 2 20 км 1/0
[Ci fib]
+33.9 +14.4 31 +35 +47 очень
жарко
1016.0 1010.4
14 19.08 Ю 2 20 км 3/1 1000 м
[Cu hum Ci fib]
+34.4 +14.5 30 +36 +43 душно 1015.8 1010.2
15 19.08 Ю 3 20 км 3/1 1000 м
[Cu hum Ci fib]
+34.0 +14.7 31 +35 +39 очень
жарко
1015.7 1010.1
16 19.08 Ю 2 20 км 3/1 1000 м
[Cu hum Ci fib]
+33.7 +14.4 31 +35 +36 очень
жарко
1015.7 1010.1
17 19.08 З 2 20 км 1/0
[Ci fib]
+32.8 +14.7 34 +35 +35 душно 1015.8 1010.1
18 19.08 З 1 20 км ясно +29.7 +14.8 40 +32 +32 душно 1016.1 1010.4 +34.6
19 19.08 Ю 1 20 км ясно +28.6 +17.1 50 +33 +33 очень
душно
1016.7 1011.0
20 19.08 СЗ 1 20 км ясно +27.3 +18.8 60 +32 +32 очень
душно
1017.0 1011.2
21 19.08 З 1 20 км ясно +25.1 +17.3 62 +29 +29 душно 1017.2 1011.4
00 20.08 З 1 20 км ясно +23.2 +16.8 67 +28 +28 душно 1017.4 1011.6
03 20.08 З 1 20 км ясно +21.8 +16.5 72 +26 +26 душно 1017.7 1011.8
04 20.08 З 1 20 км ясно +21.4 +16.2 72 +25 +25 комфорт 1017.9 1012.0
05 20.08 СЗ 2 20 км ясно +24.0 +15.5 59 +27 +28 жарко 1018.0 1012.1
06 20.08 Ю 1 20 км ясно +25.4 +17.1 60 +29 +33 душно 1018.2 1012.4 +21.3
07 20.08 С 1 20 км ясно +28.4 +16.0 47 +32 +39 душно 1018.2 1012.4
08 20.08 ЮВ 1 20 км ясно +30.2 +15.8 42 +33 +45 душно 1018.2 1012.4
09 20.08 Ю 2 20 км ясно +31.7 +16.0 39 +35 +48 очень
душно
1018.2 1012.4
10 20.08 Ю 2 20 км ясно +32.9 +16.5 37 +36 +52 опасность
солнечного
удара
1017.9 1012.2
11 20.08 ЮЗ 1 20 км ясно +33.8 +16.3 35 +36 +55 опасность
солнечного
удара
1017.6 1012.0
12 20.08 ЮЗ 1 20 км ясно +35.2 +15.1 30 +37 +54 опасность
солнечного
удара
1017.0 1011.4
13 20.08 Ю 2 20 км ясно +35.5 +15.4 30 +37 +49 душно 1016.5 1010.9
14 20.08 Ю 2 20 км ясно +36.4 +14.9 28 +38 +46 очень
душно
1016.2 1010.6
15 20.08 З 2 20 км ясно +36.7 +12.8 24 +37 +41 очень
жарко
1016.2 1010.6
16 20.08 Ю 3 20 км ясно +35.9 +13.2 26 +36 +38 очень
жарко
1016.1 1010.5
17 20.08 Ю 2 20 км ясно +35.3 +14.9 30 +37 +37 очень
душно
1016.0 1010.4
18 20.08 Ю 2 20 км ясно +33.0 +16.1 36 +36 +36 очень
душно
1016.2 1010.5 +37.1
19 20.08 З 1 20 км ясно +29.5 +17.5 48 +34 +34 очень
душно
1016.9 1011.2
20 20.08 штиль 0 20 км ясно +27.8 +18.5 57 +33 +33 очень
душно
1017.3 1011.5
21 20.08 З 1 20 км ясно +26.5 +19.0 63 +32 +32 очень
душно
1017.3 1011.5
00 21.08 СВ 1 20 км ясно +24.1 +16.4 62 +28 +28 душно 1017.6 1011.8
03 21.08 З 1 20 км ясно +23.7 +15.4 60 +27 +27 жарко 1017.3 1011.5
04 21.08 СЗ 1 20 км ясно +24.1 +14.9 56 +27 +27 жарко 1017.7 1011.9
05 21.08 СЗ 1 20 км ясно +24.8 +14.5 53 +27 +28 жарко 1018.0 1012.2
06 21.08 С 2 20 км ясно +27.4 +14.5 45 +30 +33 жарко 1018.3 1012.5 +23.1
07 21.08 С 2 20 км ясно +29.0 +15.1 43 +32 +38 душно 1018.3 1012.5
08 21.08 ЮЗ 1 20 км ясно +31.1 +15.3 38 +33 +45 душно 1018.1 1012.3
09 21.08 СЗ 1 20 км ясно +32.6 +15.6 36 +35 +51 опасность
солнечного
удара
1017.7 1012.0
10 21.08 Ю 2 20 км 1/1 1000 м
[Cu hum]
+33.0 +16.1 36 +36 +50 очень
душно
1017.3 1011.6
11 21.08 Ю 2 20 км 1/1 1000 м
[Cu hum]
+33.8 +17.4 38 +37 +52 опасность
солнечного
удара
1016.5 1010.9
12 21.08 Ю 2 20 км 1/1 1000 м
[Cu hum]
+34.4 +16.3 34 +37 +50 очень
душно
1016.2 1010.6
13 21.08 Ю 3 20 км 1/1 1000 м
[Cu hum]
+34.6 +16.5 34 +37 +46 очень
душно
1015.6 1010.0
14 21.08 Ю 3 20 км 1/1 1000 м
[Cu hum]
+35.1 +16.1 32 +37 +43 очень
душно
1015.2 1009.6
15 21.08 З 2 20 км 1/1 1000 м
[Cu hum]
+35.5 +16.3 32 +38 +42 очень
душно
1015.4 1009.8
16 21.08 Ю 2 20 км 1/1 1000 м
[Cu med, cong]
+34.8 +17.2 35 +38 +39 очень
душно
1015.3 1009.7
17 21.08 Ю 1 20 км 1/1 1000 м
[Cu med, cong]
+33.3 +17.3 39 +37 +37 очень
душно
1015.4 1009.8
18 21.08 штиль 0 20 км ясно +31.1 +17.6 44 +35 +35 очень
душно
1015.8 1010.1 +35.7
19 21.08 В 1 20 км ясно +29.8 +18.5 51 +35 +35 очень
душно
1016.5 1010.8
20 21.08 З 1 20 км ясно +27.8 +19.1 59 +33 +33 очень
душно
1017.3 1011.5
21 21.08 СЗ 1 20 км ясно +27.1 +17.8 57 +32 +32 очень
душно
1017.6 1011.8
00 22.08 С 2 20 км ясно +28.4 +10.0 32 +29 +29 жарко 1017.9 1012.2
03 22.08 СЗ 1 20 км ясно +25.1 +10.5 40 +26 +26 жарко 1018.1 1012.3
04 22.08 СВ 2 20 км ясно +28.7 +9.2 30 +29 +29 жарко 1018.2 1012.5
05 22.08 С 3 20 км ясно +28.2 +9.8 32 +28 +29 жарко 1018.9 1013.1
06 22.08 С 2 20 км ясно +29.4 +10.9 32 +30 +33 жарко 1019.2 1013.3 +24.7
07 22.08 С 3 20 км 1/0
[Ac trans]
+30.7 +11.8 31 +31 +36 жарко 1019.2 1013.3
08 22.08 С 1 20 км ясно +33.2 +13.2 30 +34 +46 очень
жарко
1019.3 1013.4
09 22.08 В 3 20 км ясно +33.8 +12.3 27 +34 +45 очень
жарко
1019.3 1013.4
10 22.08 В 2 20 км ясно +35.1 +11.1 23 +34 +50 очень
жарко
1018.8 1013.2
11 22.08 ЮЗ 2 20 км 1/1 1000 м
[Cu hum]
+35.8 +11.4 23 +35 +50 очень
жарко
1018.3 1012.7
12 22.08 З 2 20 км 1/1 1000 м
[Cu hum]
+36.1 +13.8 26 +37 +50 душно 1018.1 1012.5
13 22.08 ЮЗ 2 20 км 1/1 1000 м
[Cu hum]
+36.5 +10.9 21 +36 +46 очень
жарко
1017.7 1012.1
14 22.08 ЮЗ 3 20 км 1/1 1000 м
[Cu hum]
+36.4 +10.8 21 +35 +41 очень
жарко
1017.2 1011.6
15 22.08 ЮЗ 3 20 км 3/3 1000 м
[Cu med, cong]
+36.1 +11.1 22 +35 +38 очень
жарко
1017.0 1011.4
16 22.08 ЮЗ 2 20 км 3/3 1000 м
[Cu med, cong]
+35.9 +11.1 22 +35 +36 очень
жарко
1016.9 1011.3
17 22.08 З 1 20 км ясно +35.3 +12.1 25 +35 +35 очень
жарко
1016.8 1011.2
18 22.08 штиль 0 20 км 3/3 1000 м
[Cu med, cong]
+31.5 +13.5 33 +33 +33 жарко 1017.2 1011.5 +36.7
19 22.08 С 1 20 км 3/3 1000 м
[Cu med, cong]
+29.9 +13.6 37 +31 +31 жарко 1017.9 1012.2

 

Местоположение метеостанции Подгорица-Град (Черногория): широта 42.43 долгота 19.28 высота над уровнем моря 50 м.

В архиве по умолчанию представлена погода в Подгорица-Граде за последнюю неделю. Архивные данные за месяц целиком и за предыдущие месяцы, начиная с января 2011 года, Вы можете получить, выбрав интересующий диапазон дат из раскрывающегося списка и нажав кнопку "Ввод!".


*Определитесь, кто Вы:
робот инопланетянин человек

Внимание! Время в таблицах - всемирное. Для получения местного времени необходимо прибавить поправку, которая равна 1 ч.

Смотрите также архив погоды в соседних городах и на ближайших метеорологических станциях:

Погода в Подгорице (Черногория) (7 км)
Погода в Баре (Черногория) (40 км)
Погода в Шкодре (Албания) (42 км)
Погода в Тивате (Черногория) (45 км)
Погода в Никшиче (Черногория) (46 км)
Погода в Дубровник аэропорту (Хорватия) (84 км)
Погода в Дубровнике (Хорватия) (101 км)
Погода в Плевле (Черногория) (102 км)
Погода в Женике (Сербия) (111 км)
Погода в Кукесе (Албания) (115 км)

Пояснения к столбцам:

Ветер - указаны скорость ветра в м/с - средняя за 10 мин, порывы в срок и между сроками (в фигурных скобках) и направление, откуда дует ветер: С - северный, СВ - северо-восточный, В - восточный, ЮВ - юго-восточный, Ю - южный, ЮЗ - юго-западный, З - западный, СЗ - северо-западный.
Видимость - горизонтальная дальность видимости в метрах или километрах. При видимости от 1 до 10 км при отсутствии осадков обычно наблюдается дымка, при ухудшении видимости до 1 км и менее - туман. В сухую погоду видимость может ухудшаться дымом, пылью или мглою.
Явления - указаны атмосферные явления, наблюдавшиеся в срок или в последний час перед сроком; фигурными скобками обозначены явления, наблюдавшиеся между сроками (за 1-3 часа до срока); квадратными скобками обозначены град или гололедные отложения с указанием их диаметра в мм.
Облачность - указаны через наклонную черту общая и нижняя облачность в баллах и высота нижней границы облаков в метрах; квадратными скобками обозначены формы облаков: Ci - перистые, Cs - перисто-слоистые, Cc - перисто-кучевые, Ac - высококучевые, As - высокослоистые, Sc - слоисто-кучевые, Ns - слоисто-дождевые, Cu - кучевые, Cb - кучево-дождевые. Подробнее классификацию облаков см. в Атласе облаков (PDF).
T - Температура воздуха - температура, измеренная на высоте 2 м над землей.
Td - Температура точки росы - температура, при понижении до которой содержащийся в воздухе водяной пар достигнет насыщения.
f - Относительная влажность воздуха - влажноcть воздуха, измеренная на высоте 2 м над землей.
Te - Эффективная температура - температура, которую ощущает одетый по сезону человек в тени. Характеристика душности погоды. При расчете учитывается влияние влажности воздуха и скорости ветра на теплоощущения человека.
Tes - Эффективная температура на солнце - температура, которую ощущает человек, с поправкой на солнечный нагрев. Характеристика знойности погоды. Зависит от высоты солнца над горизонтом, облачности и скорости ветра. Ночью, в пасмурную погоду, а также при ветре 12 м/с и более поправка равна нулю.
P - Атмосферное давление - приведенное к уровню моря атмосферное давление.
Po - Атмосферное давление - измеренное на уровне метеостанции атмосферное давление.
Tmin - Минимальная температура - минимум температуры воздуха на высоте 2 м над землей.
Tmax - Максимальная температура - максимум температуры воздуха на высоте 2 м над землей.
R - Количество осадков - Количество выпавших осадков за период времени, мм. При наведении курсора мыши на число - период времени, за который выпало указанное количество осадков.
R24 - Количество осадков - Количество выпавших осадков за 24 часа, мм.
S - Снежный покров - Высота снежного покрова, см. При наведении курсора мыши на число - состояние снежного покрова и степень покрытия местности в баллах.